Theta_e
338 339 342 340 344 345 347 346 343 343 343 339 342 344 343 342 345 347 338 339 340 340 339 339 336 337 337 335 336 338 337 336 331 326 323 321 320 320 319 319 320 328 333 335 330 336 334 335 333
342 337 338 341 344 348 348 344 345 346 341 340 344 342 342 341 339 340 341 339 339 339 338 337 336 336 336 336 335 334 334 331 329 327 324 322 321 320 320 320 320 323 332 336 335 331 335 334 334
338 338 340 343 347 346 347 345 345 344 343 342 343 342 341 338 340 341 341 340 339 338 337 336 335 335 333 333 332 330 329 328 327 325 326 325 324 322 320 320 320 321 323 328 331 333 334 334 334
337 338 341 344 346 344 346 345 343 343 342 342 342 342 341 340 341 340 339 339 339 337 335 330 328 328 327 327 326 326 325 325 324 324 324 323 324 325 326 324 321 321 321 322 323 326 333 334 334
336 338 344 344 346 346 343 342 343 342 342 342 341 342 341 341 339 339 338 337 336 336 334 328 325 323 322 321 320 320 319 319 318 318 318 318 319 321 322 324 326 327 325 322 322 323 326 332 335
337 338 343 347 348 344 343 343 343 342 341 341 341 341 341 339 338 338 335 332 330 328 328 326 321 319 318 318 318 318 317 316 316 316 315 315 314 315 316 316 318 321 325 328 326 322 322 323 329
337 342 344 344 344 343 345 342 343 342 340 341 340 342 341 340 339 335 331 328 326 325 325 324 322 321 321 318 316 314 314 313 312 312 312 312 312 312 312 312 312 313 315 318 324 328 327 322 323
337 338 343 340 341 344 343 343 341 341 343 341 342 342 341 338 337 330 328 326 326 325 324 324 324 323 322 322 313 312 312 313 312 312 312 312 314 316 316 312 313 311 312 313 314 318 326 328 323
336 338 338 338 340 345 343 343 342 341 341 341 341 342 340 337 333 329 327 326 324 324 325 324 323 321 319 317 317 317 315 314 314 315 313 316 318 317 316 314 311 310 310 311 311 312 314 323 326
337 337 338 338 339 342 343 343 342 342 341 340 341 342 337 336 329 326 324 324 326 325 324 323 316 316 317 317 317 318 318 318 317 317 316 317 316 315 313 314 311 309 308 309 309 310 311 313 325
341 340 339 340 341 342 343 343 342 342 342 340 341 341 337 334 326 325 325 325 322 322 323 319 318 316 316 316 316 317 318 318 317 317 315 316 316 316 315 315 315 315 313 313 313 313 315 317 321
343 340 341 342 342 343 343 342 340 340 339 339 340 339 337 333 327 324 324 323 323 321 320 318 317 317 315 315 315 316 316 317 316 316 316 315 315 315 315 315 315 315 315 315 315 314 314 315 316
343 342 342 342 341 341 340 340 338 335 338 339 339 337 332 327 324 324 323 323 323 321 322 318 317 314 315 316 314 316 316 316 315 315 315 315 314 315 315 315 315 315 315 315 315 315 316 315 314
342 342 342 341 341 340 341 339 339 333 336 337 336 332 330 326 324 324 322 322 323 326 317 317 316 314 314 315 314 315 316 316 316 316 315 314 314 315 315 315 315 315 315 315 316 316 316 315 315
341 344 342 341 340 340 339 340 336 332 333 331 330 329 327 325 326 323 323 323 325 326 318 316 317 316 314 314 314 315 315 315 316 315 314 314 314 315 315 315 315 315 315 316 316 316 316 316 316
341 342 345 341 341 339 341 345 334 333 334 334 332 329 327 327 326 324 322 324 328 327 320 317 317 317 316 314 314 315 315 316 316 315 314 314 315 315 315 315 315 315 315 315 316 316 316 316 316
340 337 341 343 339 341 341 342 336 335 335 334 334 331 328 326 327 328 326 328 328 327 324 319 318 318 316 315 316 316 316 317 316 315 315 314 314 314 314 315 315 315 315 315 316 317 316 316 317
334 335 338 340 341 339 339 339 336 335 335 335 334 332 330 330 330 330 328 328 328 327 324 322 320 319 317 318 317 316 316 316 316 316 315 315 315 315 315 315 315 315 314 316 317 317 316 316 316
335 334 335 340 337 339 340 339 338 337 335 334 333 332 330 329 329 329 328 328 325 326 324 325 323 320 319 318 317 315 315 316 316 315 315 315 315 315 315 315 314 315 315 317 318 317 316 316 315
336 336 339 338 336 338 338 338 334 335 333 332 333 333 328 329 329 329 329 327 326 326 325 322 325 322 320 318 317 315 316 316 316 317 317 315 315 314 315 315 315 316 315 317 317 316 316 316 316
336 335 340 338 338 337 338 339 336 333 332 332 331 333 331 330 329 329 329 330 329 324 321 327 326 323 321 317 317 317 316 317 316 316 316 316 314 315 315 315 315 314 316 316 315 315 316 316 315
334 336 335 339 340 339 337 336 337 333 332 331 330 331 331 330 329 328 329 330 330 326 327 328 327 324 321 316 317 317 316 316 316 317 316 315 316 315 315 315 315 313 316 314 313 315 314 314 315
336 335 336 337 339 339 338 337 337 332 332 332 331 331 330 329 329 329 329 328 329 330 329 328 327 324 320 315 313 315 316 315 316 317 317 316 316 316 315 315 314 314 314 315 314 315 314 314 315
334 335 336 336 336 337 337 334 337 333 331 329 327 326 327 328 329 329 328 327 327 328 327 326 326 324 320 315 317 317 316 316 317 316 317 316 316 316 315 315 314 314 313 315 315 314 314 313 314
334 336 333 334 337 336 334 333 335 330 329 328 326 325 325 326 326 326 327 326 325 325 325 324 323 323 321 318 317 317 316 315 316 316 316 315 315 314 314 314 314 314 315 314 315 314 315 315 313
334 333 330 331 330 332 333 334 330 327 328 327 326 324 322 322 324 324 325 325 324 324 324 324 322 322 321 318 317 316 316 315 316 316 315 315 314 313 314 314 314 314 315 315 315 315 315 313 312
333 333 331 331 333 333 335 331 326 325 324 323 322 322 322 322 323 323 323 322 322 323 322 323 322 321 320 318 317 317 316 316 315 313 313 315 314 313 313 314 314 315 315 315 313 315 315 315 313
330 329 331 333 332 331 335 332 332 327 324 324 323 323 322 322 322 322 321 320 319 319 319 319 320 320 320 318 315 314 316 315 312 315 316 314 312 311 312 314 313 315 315 315 311 315 315 316 316
328 330 331 331 331 330 327 333 326 324 324 324 322 322 322 322 321 321 320 319 318 318 319 320 319 318 318 317 314 313 315 316 315 314 315 315 312 312 313 315 313 314 314 314 311 315 315 316 317
327 328 328 330 332 328 326 330 324 324 323 323 323 322 321 321 319 316 315 314 313 314 314 315 318 319 317 316 314 314 313 313 314 312 312 314 312 312 312 313 315 313 314 313 310 316 315 316 316
Wind_Speed
6 3 4 3 4 4 9 7 8 9 8 6 7 8 12 9 6 7 9 8 11 12 13 12 11 10 9 8 9 9 8 9 8 7 5 5 4 4 4 3 2 2 4 2 2 1 1 1 1
4 3 2 4 3 7 7 8 10 9 10 11 8 7 5 6 8 11 9 12 12 13 13 13 11 9 9 8 7 6 5 5 6 6 7 6 5 4 4 4 2 0 2 1 2 4 3 3 3
2 3 6 2 4 8 10 9 10 10 6 5 5 7 6 4 8 7 13 15 14 16 16 13 10 8 7 7 6 5 5 5 6 7 7 6 5 4 4 4 3 3 3 6 5 4 6 6 6
1 3 3 5 15 11 14 9 9 11 8 2 8 10 10 7 5 9 16 17 17 16 15 10 8 8 8 8 7 7 7 8 9 9 8 8 7 7 6 6 6 6 5 5 7 8 8 9 9
1 4 7 9 12 9 9 4 1 5 5 6 4 8 8 9 14 15 15 14 15 14 14 12 12 12 11 10 10 9 10 10 9 9 10 10 10 9 8 8 7 8 8 8 8 9 9 10 11
6 2 9 8 10 8 4 1 4 5 7 8 14 12 8 11 14 14 14 15 15 15 14 13 13 12 11 11 11 11 11 11 10 10 10 11 11 11 11 11 11 11 10 10 11 12 13 13 12
3 6 12 10 11 7 5 3 3 5 8 8 7 8 9 12 14 14 15 15 15 14 13 12 12 13 13 13 14 14 13 13 13 13 12 13 14 14 14 14 14 14 14 13 12 12 14 16 16
2 10 9 8 5 7 7 5 7 5 5 5 2 5 8 17 15 14 13 13 13 12 11 10 11 10 10 10 14 14 13 13 13 13 13 13 14 13 14 14 14 15 17 17 17 16 15 15 17
1 5 7 8 3 9 12 7 4 4 9 5 3 5 16 18 16 15 14 13 12 12 11 10 11 13 12 11 12 12 13 11 9 8 8 8 6 8 9 16 15 15 16 18 19 20 20 18 16
3 7 8 5 6 8 11 4 7 5 8 5 7 13 19 17 16 14 14 13 11 11 11 11 15 18 15 12 11 8 7 5 4 4 5 4 6 8 11 13 16 15 15 14 16 18 19 17 12
4 8 9 7 5 10 9 8 3 2 2 2 10 18 19 17 14 11 11 10 12 12 12 12 15 18 17 15 12 8 5 5 5 5 5 8 7 9 9 10 9 10 12 9 10 10 9 11 13
6 6 5 8 8 7 6 8 9 5 5 2 10 16 17 15 13 12 13 10 9 10 11 11 15 17 22 16 13 9 5 4 4 5 6 8 8 9 9 9 9 10 10 11 11 9 10 11 13
11 10 11 11 10 10 9 9 9 6 5 10 12 12 14 17 15 13 11 7 6 7 6 9 14 21 24 17 13 9 7 5 4 6 8 8 8 8 8 8 8 9 10 10 11 11 11 10 12
9 14 11 8 8 7 6 8 2 5 6 10 12 13 14 15 15 13 14 14 7 2 4 6 13 20 24 24 19 9 7 7 6 6 7 8 7 7 7 9 8 8 9 9 10 11 12 11 11
14 12 10 5 4 6 3 8 6 6 8 11 10 10 11 14 13 16 11 13 8 5 1 5 10 17 22 22 19 9 7 7 7 6 7 7 7 7 8 9 9 10 10 11 11 12 12 12 12
5 7 6 6 2 3 5 4 6 8 10 8 8 9 12 12 14 12 15 11 9 9 5 4 9 13 17 20 21 12 8 7 7 6 6 7 8 8 8 9 9 11 10 11 12 13 14 14 13
6 6 2 5 1 3 6 5 8 7 6 4 5 7 10 13 13 12 12 10 10 9 7 7 9 12 14 17 15 12 11 9 7 7 7 8 8 8 8 8 9 11 11 12 12 14 13 13 14
7 4 2 1 4 4 4 5 9 7 5 4 5 7 8 13 15 12 14 11 10 11 12 11 9 11 13 11 12 14 11 9 8 8 7 8 8 10 10 9 11 10 10 11 11 13 12 12 13
6 6 3 5 4 1 4 5 3 4 5 7 10 8 6 7 8 12 14 15 16 13 9 15 12 13 10 8 13 14 9 8 7 8 9 9 8 9 9 8 10 11 10 10 10 10 11 11 10
4 4 4 3 4 5 6 5 4 6 5 3 6 8 9 7 6 9 13 18 18 13 17 13 14 12 9 9 12 10 8 7 9 7 10 9 9 8 8 10 9 11 9 10 11 10 10 10 10
6 9 4 8 8 3 5 7 6 8 5 4 2 4 11 8 7 7 9 14 15 12 12 11 11 12 12 13 9 10 10 10 9 10 10 9 8 8 9 9 9 10 9 10 11 11 11 12 13
13 4 6 6 10 3 6 3 5 2 1 0 1 2 8 9 7 5 6 9 13 14 12 11 12 12 12 11 9 10 8 9 10 11 12 11 8 8 8 9 10 10 9 10 11 11 12 12 12
5 2 4 9 11 5 8 7 8 1 3 5 3 2 4 7 8 7 7 7 9 11 12 10 12 13 11 10 12 9 9 10 12 12 13 11 7 8 8 9 10 10 10 9 11 11 12 12 12
7 4 4 5 5 11 7 5 8 2 3 3 5 7 7 7 6 8 8 8 7 9 9 9 11 11 10 9 9 8 9 12 12 11 9 9 9 8 7 9 8 11 8 9 9 10 10 13 12
5 7 8 7 8 1 4 6 9 3 1 5 8 10 9 8 6 8 9 7 9 8 8 10 10 11 10 9 8 8 7 12 11 10 8 8 9 9 9 8 9 9 8 8 9 9 10 10 14
7 6 8 13 12 6 5 1 4 5 4 5 7 9 10 9 9 9 9 10 12 13 11 13 11 11 11 9 8 8 8 8 9 8 5 6 8 7 7 6 8 8 8 8 10 9 9 10 12
4 7 6 10 10 9 5 6 6 7 6 6 6 8 10 11 11 9 8 9 10 11 13 11 11 11 13 11 9 9 9 9 8 7 7 6 7 8 9 9 10 8 7 9 11 11 10 10 10
6 4 7 6 8 7 6 4 6 1 3 5 7 9 10 10 10 11 11 13 14 14 14 12 12 14 13 13 13 10 12 11 9 9 9 8 9 9 8 8 8 8 7 9 10 10 11 8 8
2 3 2 4 5 7 6 6 4 2 4 6 7 9 10 13 13 14 15 15 16 15 16 17 15 13 13 15 17 14 12 13 13 13 13 11 11 9 10 8 7 6 8 8 9 9 9 7 7
5 4 4 6 3 1 6 4 5 2 3 6 11 12 12 14 14 16 17 17 19 19 19 19 19 20 18 15 16 20 17 15 15 16 16 13 13 11 11 10 8 7 6 6 6 7 6 7 8
Wind_Direction
122 109 187 278 207 104 78 84 115 117 109 87 69 58 80 43 8 101 124 111 111 111 109 110 109 98 93 87 82 76 63 49 41 46 46 34 26 21 18 31 36 60 77 94 146 105 213 210 183
142 152 219 260 167 133 79 92 81 79 110 122 87 93 64 69 65 122 109 120 121 111 108 105 105 106 103 98 94 80 54 44 42 40 35 31 26 17 9 13 41 203 183 174 203 218 223 220 203
108 183 275 106 26 92 105 110 106 107 130 157 111 72 61 89 116 119 118 112 107 100 102 109 114 109 98 86 77 67 54 40 31 27 26 27 22 9 351 331 315 297 267 264 268 242 229 230 229
261 184 146 148 112 74 108 99 108 123 108 100 108 91 93 85 116 120 115 103 92 90 88 94 89 78 71 63 54 43 32 27 24 19 18 15 10 8 357 345 328 308 289 275 269 259 246 243 242
318 245 117 119 98 96 86 110 201 119 85 115 132 99 84 98 116 113 102 99 99 94 89 86 76 70 61 53 42 31 21 14 9 2 358 354 349 346 337 329 315 306 297 284 276 277 271 255 246
193 287 145 118 109 115 94 54 153 97 102 99 112 108 91 120 117 108 106 104 103 101 93 83 72 61 48 34 22 10 1 354 347 338 333 330 328 326 322 316 313 304 298 290 279 268 263 263 257
11 114 80 131 122 131 114 70 112 102 119 90 137 109 133 133 120 117 115 109 101 96 92 83 65 38 21 15 6 357 347 341 335 327 323 320 319 314 310 309 302 300 297 292 288 279 271 264 262
80 105 139 121 163 98 119 110 121 110 88 127 90 160 158 149 129 124 116 111 103 95 88 73 61 39 31 3 355 342 332 323 320 318 317 318 332 325 320 313 303 296 290 285 278 273 269 266 259
287 148 111 110 148 122 153 142 129 130 128 107 95 94 157 143 136 132 126 123 113 97 84 68 45 22 12 4 348 0 342 347 343 337 320 338 321 329 336 308 308 299 288 281 279 275 268 264 267
281 83 75 67 82 140 155 140 141 164 145 91 115 122 142 143 143 138 129 116 104 89 78 58 35 26 12 5 4 4 6 11 22 11 9 358 343 330 333 325 321 314 304 293 283 277 272 274 263
36 72 119 99 94 136 132 123 128 194 172 126 155 146 146 147 143 131 122 106 108 86 70 52 36 26 26 12 12 4 6 24 3 24 17 340 347 327 327 328 328 331 328 329 316 305 288 258 252
114 79 90 103 111 127 124 122 92 56 29 179 159 157 152 147 137 133 129 129 100 77 70 50 35 31 25 23 11 14 15 29 21 342 1 342 340 331 334 330 337 337 334 333 327 321 303 289 270
96 97 84 97 94 91 105 77 93 72 77 128 142 140 149 154 154 149 144 118 99 70 66 47 31 27 28 20 13 12 28 16 6 349 335 341 341 337 341 336 342 335 332 330 327 322 313 308 285
109 114 108 97 100 115 109 103 240 83 119 129 134 143 161 161 160 148 140 130 132 178 58 26 19 23 18 15 17 4 9 1 346 339 329 346 340 333 345 340 339 338 337 332 330 318 314 306 296
128 122 127 105 105 121 149 77 79 129 142 139 140 152 166 169 169 161 174 158 181 200 118 10 8 17 9 11 10 353 358 351 339 330 331 341 343 339 346 331 335 330 330 335 330 324 319 311 297
195 184 207 95 188 139 261 73 149 174 169 160 163 165 179 186 179 199 179 193 225 211 221 322 350 359 360 0 359 350 342 347 332 326 324 319 332 329 339 331 330 318 331 327 323 323 318 305 294
195 329 215 153 51 145 249 116 155 176 190 193 193 182 194 196 204 212 207 226 222 219 226 269 318 340 345 349 350 347 340 338 326 319 314 309 325 315 324 319 314 327 332 329 325 319 313 306 296
349 283 151 261 122 170 110 127 157 186 211 231 215 220 222 225 224 222 221 234 223 231 249 268 289 312 325 342 349 344 340 334 325 317 305 314 314 312 313 315 314 325 323 317 311 323 321 313 307
296 296 18 113 142 170 95 143 152 201 230 253 243 217 213 240 243 233 233 238 247 260 263 269 267 288 312 324 343 342 328 322 331 338 321 313 301 308 308 312 309 310 314 307 322 332 334 331 307
253 278 131 133 182 260 179 129 165 167 176 307 297 224 202 224 249 243 237 244 250 284 257 254 250 272 295 312 328 327 316 312 316 321 324 314 305 305 309 305 301 296 306 310 318 323 333 334 319
220 272 159 295 171 194 213 181 164 183 257 280 287 223 219 248 266 280 259 244 245 242 245 253 254 273 294 301 320 323 320 316 312 313 314 304 305 298 299 305 300 304 312 306 314 326 325 322 326
293 352 272 195 204 261 203 329 153 132 77 13 17 227 233 241 254 268 282 265 256 246 256 257 256 268 280 306 307 304 309 305 306 309 303 302 299 294 296 301 304 300 287 287 317 320 321 325 315
14 328 232 217 236 223 166 263 104 123 150 63 60 292 272 258 258 270 292 292 273 256 256 267 262 269 274 297 313 308 299 309 313 309 308 307 305 302 300 301 299 287 289 300 311 317 318 334 313
125 134 182 220 245 245 110 258 107 98 37 66 65 36 11 333 297 285 293 288 294 280 275 269 260 257 256 290 290 288 286 305 309 316 318 315 304 301 299 303 291 288 303 311 311 315 324 336 332
234 224 264 232 204 14 120 235 64 57 91 28 22 16 15 2 348 315 297 294 296 286 288 282 269 251 242 268 281 278 276 308 325 324 325 337 324 314 304 297 295 297 304 320 321 317 327 339 358
236 317 293 301 305 342 143 281 90 43 72 37 31 20 11 2 352 343 339 344 337 332 311 291 272 264 248 259 276 277 274 300 322 311 322 346 354 346 333 313 298 302 318 329 328 331 318 323 343
136 248 7 288 241 263 100 104 151 107 57 47 41 27 21 14 14 10 7 0 352 336 325 303 276 268 258 259 278 285 272 281 290 302 307 311 340 342 322 328 296 300 318 330 333 331 327 311 330
331 25 264 218 283 287 135 208 125 40 18 29 26 17 13 10 8 6 1 359 358 358 341 322 301 286 268 259 269 286 276 273 283 282 287 282 313 321 333 331 310 283 299 315 325 327 322 315 319
263 235 292 303 301 301 308 101 52 30 18 6 8 356 347 344 345 345 343 342 342 338 325 320 312 304 285 273 280 278 281 268 279 273 279 291 293 303 306 308 324 294 295 297 316 333 336 334 353
41 20 328 299 106 336 308 81 106 67 41 352 349 354 355 347 346 340 339 342 344 342 333 321 318 309 301 289 271 268 268 272 274 278 274 286 282 289 310 295 299 305 292 285 316 341 24 14 19